Stations météo

Publicité
Istres, France (7647): Température de l'air & dewpoint: 16.07.2019 17:00:00 - 22.07.2019 17:00:00 (CEST)Istres, France (7647): Température de l'air 5cm: 16.07.2019 17:00:00 - 22.07.2019 17:00:00 (CEST)Istres, France (7647): Vitesse du vent & gusts: 16.07.2019 17:00:00 - 22.07.2019 17:00:00 (CEST)Istres, France (7647): Direction du vent: 16.07.2019 17:00:00 - 22.07.2019 17:00:00 (CEST)Istres, France (7647): reduced air pressure: 16.07.2019 17:00:00 - 22.07.2019 17:00:00 (CEST)Istres, France (7647): visibility: 16.07.2019 17:00:00 - 22.07.2019 17:00:00 (CEST)Istres, France (7647): Quantités de précipitations: 16.07.2019 17:00:00 - 22.07.2019 17:00:00 (CEST)
Date & Time tt [°C] td [°C] tt 5cm [°C] ff [km/h] ff [knt] fx [km/h] fx [knt] dd ppp [hPa] vv [km] rr [mm]
22.07.2019 17:00:00 29,4 20,5 35,1 24 13 35 19 SSE 1020,1 20 0,0
22.07.2019 16:00:00 29,9 19,0 35,4 26 14 37 20 S 1020,3 20 0,0
22.07.2019 15:00:00 30,6 20,2 37,5 21 12 32 17 S 1020,6 20 0,0
22.07.2019 14:00:00 31,4 20,0 39,6 21 11 33 18 S 1020,8 20 0,0
22.07.2019 13:00:00 31,3 20,0 39,1 15 8 29 16 SSE 1021,0 19 0,0
22.07.2019 12:00:00 31,8 20,7 38,3 9 5 19 11 SSW 1021,2 17 0,0
22.07.2019 11:00:00 30,3 17,7 36,0 6 3 12 7 NW 1021,2 43 0,0
22.07.2019 10:00:00 28,6 17,8 31,4 4 2 9 5 NNW 1021,2 32 0,0
22.07.2019 09:00:00 26,5 18,1 28,7 2 1 8 5 NNE 1021,2 29 0,0
22.07.2019 08:00:00 24,5 18,2 22,7 4 2 9 5 NNE 1021,2 25 0,0
22.07.2019 07:00:00 21,9 17,3 21,6 9 5 14 7 NNE 1020,8 20 0,0
22.07.2019 06:00:00 22,2 20,1 21,6 4 2 8 4 NNE 1020,6 16 0,0
22.07.2019 05:00:00 22,1 20,0 21,8 7 4 10 5 NNE 1020,5 17 0,0
22.07.2019 04:00:00 23,1 20,2 22,2 3 2 5 3 E 1020,8 14 0,0
22.07.2019 03:00:00 23,4 20,3 22,5 2 1 5 3 SSW 1021,2 17 0,0
22.07.2019 02:00:00 23,7 20,6 22,9 0 0 5 3 N 1021,3 21 0,0
22.07.2019 01:00:00 23,8 20,3 23,2 3 2 6 4 SSW 1021,4 28 0,0
22.07.2019 00:00:00 24,2 20,1 23,8 3 2 5 3 SW 1021,2 31 0,0
21.07.2019 23:00:00 24,4 18,8 23,8 0 0 8 4 N 1020,9 33 0,0
21.07.2019 22:00:00 25,0 18,7 24,8 6 4 20 11 W 1020,6 38 0,0
21.07.2019 21:00:00 26,3 17,9 26,5 16 8 25 14 WSW 1020,1 44 0,0
21.07.2019 20:00:00 28,6 16,2 30,1 16 9 22 12 SW 1019,5 42 0,0
21.07.2019 19:00:00 30,3 14,4 34,1 18 10 26 14 SW 1019,2 37 0,0
21.07.2019 18:00:00 31,3 13,6 35,7 21 11 33 18 SSW 1019,1 32 0,0
21.07.2019 17:00:00 32,4 15,4 37,5 21 12 37 20 SW 1019,4 37 0,0
21.07.2019 16:00:00 33,1 17,3 39,5 13 7 27 15 WSW 1019,4 20 0,0
21.07.2019 15:00:00 32,6 16,0 38,4 14 7 23 13 SSW 1019,6 20 0,0
21.07.2019 14:00:00 32,3 15,8 34,7 10 5 23 12 W 1020,0 20 0,0
21.07.2019 13:00:00 30,9 14,1 35,8 11 6 18 10 WSW 1020,3 26 0,0
21.07.2019 12:00:00 30,1 13,8 36,9 10 5 18 10 N 1020,5 47 0,0
21.07.2019 11:00:00 28,4 17,9 33,5 10 5 20 11 NNW 1020,5 43 0,0
21.07.2019 10:00:00 26,5 17,6 30,7 10 5 18 10 NW 1020,9 29 0,0
21.07.2019 09:00:00 25,1 17,3 26,3 3 2 8 5 N 1020,5 28 0,0
21.07.2019 08:00:00 22,7 18,2 21,1 4 2 8 5 NW 1020,5 28 0,0
21.07.2019 07:00:00 21,2 18,0 20,9 8 5 33 18 NNW 1020,4 21 0,0
21.07.2019 06:00:00 22,2 19,6 20,5 9 5 11 6 ENE 1019,4 13 0,0
21.07.2019 05:00:00 20,5 17,7 19,8 6 3 12 7 NNE 1020,1 19 0,0
21.07.2019 04:00:00 21,0 18,2 19,7 6 3 9 5 NNW 1020,3 16 0,0
21.07.2019 03:00:00 21,3 18,7 20,7 0 0 7 4 N 1020,2 15 0,0
21.07.2019 02:00:00 21,4 19,1 20,2 5 3 7 4 NNE 1020,2 15 0,0
21.07.2019 01:00:00 21,7 19,3 20,4 0 0 11 6 N 1020,0 6 0,0
21.07.2019 00:00:00 22,0 19,2 21,2 5 3 10 5 ENE 1019,8 16 0,0
20.07.2019 23:00:00 23,0 19,6 21,9 4 2 12 6 SE 1019,6 17 0,0
20.07.2019 22:00:00 23,5 19,8 23,0 9 5 17 9 S 1019,4 22 0,0
20.07.2019 21:00:00 24,4 19,9 24,7 13 7 22 12 S 1018,7 28 0,0
20.07.2019 20:00:00 26,2 18,8 28,5 18 10 25 13 S 1018,1 26 0,0
20.07.2019 19:00:00 27,0 19,1 31,2 17 9 31 17 S 1018,1 32 0,0
20.07.2019 18:00:00 27,6 18,9 31,8 22 12 37 20 SSE 1017,8 23 0,0
20.07.2019 17:00:00 28,1 19,6 35,3 24 13 37 20 S 1017,7 20 0,0
20.07.2019 16:00:00 29,2 18,6 34,8 28 15 41 22 S 1017,8 25 0,0
20.07.2019 15:00:00 29,1 19,7 34,6 27 14 39 21 S 1017,5 20 0,0
20.07.2019 14:00:00 29,4 18,8 35,9 25 13 34 19 S 1017,6 31 0,0
20.07.2019 13:00:00 28,8 18,9 31,3 17 9 28 15 ESE 1017,8 30 0,0
20.07.2019 12:00:00 28,1 19,6 30,9 12 7 26 14 SE 1018,5 20 0,0
20.07.2019 11:00:00 26,5 19,4 31,2 17 9 29 16 S 1018,8 22 0,0
20.07.2019 10:00:00 27,3 19,4 29,9 10 5 20 11 S 1017,9 20 0,0
20.07.2019 09:00:00 24,8 19,2 26,9 9 5 15 8 E 1017,3 17 0,0
20.07.2019 08:00:00 23,3 19,0 21,0 5 3 11 6 NE 1016,7 13 0,0
20.07.2019 07:00:00 19,5 16,9 18,4 8 5 12 6 NE 1016,5 15 0,0
20.07.2019 06:00:00 19,1 16,1 18,8 8 4 11 6 NE 1016,3 16 0,0
20.07.2019 05:00:00 19,7 16,9 18,6 0 0 6 3 N 1016,3 10 0,0
20.07.2019 04:00:00 19,5 17,8 18,7 7 4 9 5 ENE 1015,9 11 0,0
20.07.2019 03:00:00 19,9 16,5 19,1 2 1 10 6 N 1015,9 17 0,0
20.07.2019 02:00:00 21,1 17,5 19,2 7 4 10 5 E 1016,0 18 0,0
20.07.2019 01:00:00 20,9 15,7 19,3 5 3 9 5 E 1016,3 25 0,0
20.07.2019 00:00:00 22,5 14,9 20,8 7 4 11 6 ESE 1016,1 28 0,0
19.07.2019 23:00:00 22,8 13,8 21,6 6 4 13 7 ESE 1015,9 39 0,0
19.07.2019 22:00:00 23,0 14,8 22,2 9 5 16 8 SSE 1015,7 38 0,0
19.07.2019 21:00:00 23,7 17,0 23,9 12 7 22 12 SE 1015,3 36 0,0
19.07.2019 20:00:00 26,2 14,6 29,0 16 9 26 14 S 1015,0 32 0,0
19.07.2019 19:00:00 27,6 12,4 33,3 16 9 32 17 S 1014,6 32 0,0
19.07.2019 18:00:00 27,9 14,2 34,7 23 12 34 18 S 1015,1 20 0,0
19.07.2019 17:00:00 29,1 13,7 36,5 23 13 36 19 S 1015,0 20 0,0
19.07.2019 16:00:00 30,6 12,9 38,0 22 12 34 18 SSE 1015,2 19 0,0
19.07.2019 15:00:00 30,0 14,1 38,1 26 14 37 20 SSE 1015,3 18 0,0
19.07.2019 14:00:00 30,4 13,7 37,5 24 13 36 19 SSE 1015,3 20 0,0
19.07.2019 13:00:00 30,8 13,6 38,5 23 12 35 19 S 1015,5 19 0,0
19.07.2019 12:00:00 30,3 11,8 36,9 5 3 14 8 NNW 1015,7 20 0,0
19.07.2019 11:00:00 28,4 12,3 34,6 6 4 20 11 NW 1015,9 40 0,0
19.07.2019 10:00:00 26,8 11,7 31,4 10 5 19 10 NNW 1015,8 42 0,0
19.07.2019 09:00:00 25,4 10,4 28,1 13 7 17 9 NNW 1015,6 41 0,0
19.07.2019 08:00:00 24,0 10,6 23,4 9 5 14 8 NNW 1015,3 45 0,0
19.07.2019 07:00:00 21,6 11,0 18,7 5 3 10 6 NNW 1014,9 38 0,0
19.07.2019 06:00:00 21,4 10,8 19,3 8 4 11 6 N 1014,5 52 0,0
19.07.2019 05:00:00 22,0 10,5 19,3 6 3 14 8 NNE 1014,2 52 0,0
19.07.2019 04:00:00 21,5 10,6 19,6 11 6 14 8 NW 1013,9 54 0,0
19.07.2019 03:00:00 21,1 11,1 20,2 11 6 17 9 W 1013,6 56 0,0
19.07.2019 02:00:00 21,8 11,5 21,2 11 6 16 9 W 1013,6 55 0,0
19.07.2019 01:00:00 22,6 11,3 21,7 10 5 19 11 W 1013,4 59 0,0
19.07.2019 00:00:00 24,0 11,3 23,4 16 8 19 11 W 1013,0 59 0,0
18.07.2019 23:00:00 25,0 12,2 24,4 13 7 24 13 W 1012,7 60 0,0
18.07.2019 22:00:00 27,2 10,0 26,7 19 10 28 15 W 1012,1 60 0,0
18.07.2019 21:00:00 28,0 13,5 27,9 17 9 34 18 WSW 1011,5 42 0,0
18.07.2019 20:00:00 30,3 11,8 31,8 23 12 41 22 WSW 1011,0 20 0,0
18.07.2019 19:00:00 30,7 11,1 33,1 30 16 47 25 WSW 1010,8 11 0,0
18.07.2019 18:00:00 31,7 11,0 34,9 37 20 49 26 WSW 1010,8 10 0,0
18.07.2019 17:00:00 32,5 12,2 36,8 36 20 48 26 SW 1010,7 12 0,0
18.07.2019 16:00:00 33,2 11,1 38,5 29 16 44 24 WSW 1011,1 15 0,0
18.07.2019 15:00:00 34,1 8,7 39,1 24 13 40 22 W 1011,1 15 0,0
18.07.2019 14:00:00 33,1 8,5 38,8 29 15 45 25 W 1011,4 17 0,0
18.07.2019 13:00:00 32,4 8,6 38,3 22 12 40 21 WNW 1011,8 20 0,0
18.07.2019 12:00:00 31,2 9,4 35,6 26 14 41 22 WNW 1012,1 16 0,0
18.07.2019 11:00:00 29,9 9,9 32,3 26 14 42 23 WNW 1012,2 12 0,0
18.07.2019 10:00:00 28,2 11,3 27,9 26 14 38 20 WNW 1012,4 13 0,0
18.07.2019 09:00:00 26,7 10,4 25,9 26 14 41 22 WNW 1012,3 15 0,0
18.07.2019 08:00:00 24,6 10,8 21,9 23 12 35 19 WNW 1011,9 32 0,0
18.07.2019 07:00:00 21,5 12,1 19,1 12 7 19 10 WNW 1011,3 44 0,0
18.07.2019 06:00:00 19,9 14,7 18,5 11 6 15 8 WNW 1010,9 28 0,0
18.07.2019 05:00:00 19,7 16,2 18,9 8 4 14 8 WNW 1010,6 24 0,0
18.07.2019 04:00:00 20,7 16,1 19,6 9 5 11 6 NW 1010,5 24 0,0
18.07.2019 03:00:00 21,1 15,9 20,4 7 4 10 5 N 1010,4 32 0,0
18.07.2019 02:00:00 21,4 16,6 20,8 5 3 14 7 NNE 1010,5 26 0,0
18.07.2019 01:00:00 22,6 17,9 22,1 8 4 13 7 NE 1010,8 27 0,0
18.07.2019 00:00:00 23,8 18,7 23,2 8 5 13 7 ENE 1010,8 27 0,0
17.07.2019 23:00:00 24,3 17,8 23,4 7 4 19 10 ENE 1011,2 17 0,0
17.07.2019 22:00:00 25,0 17,2 24,8 20 11 34 18 SSW 1011,0 41 0,0
17.07.2019 21:00:00 26,5 15,5 26,6 20 11 30 16 SW 1010,6 48 0,0
17.07.2019 20:00:00 30,0 12,9 31,8 20 11 37 20 SW 1010,3 34 0,0
17.07.2019 19:00:00 30,6 12,5 31,6 27 15 40 22 SW 1010,7 28 0,0
17.07.2019 18:00:00 30,6 11,0 33,6 32 18 44 24 SW 1010,9 22 0,0
17.07.2019 17:00:00 32,8 10,8 37,6 29 16 39 21 SW 1011,0 27 0,0
17.07.2019 16:00:00 32,9 12,5 38,9 26 14 39 21 SW 1011,2 40 0,0
17.07.2019 15:00:00 33,8 9,1 40,3 11 6 37 20 WSW 1011,4 51 0,0
17.07.2019 14:00:00 32,5 9,3 38,8 15 8 38 21 N 1012,1 16 0,0
17.07.2019 13:00:00 31,9 11,1 38,6 14 7 26 14 N 1012,5 20 0,0
17.07.2019 12:00:00 29,5 13,3 33,7 9 5 20 11 NNW 1012,9 20 0,0
17.07.2019 11:00:00 27,3 12,9 30,0 12 6 19 10 N 1013,0 44 0,0
17.07.2019 10:00:00 26,0 14,1 29,9 9 5 18 10 NNW 1013,5 53 0,0
17.07.2019 09:00:00 24,0 15,8 27,3 6 4 11 6 NNW 1013,6 26 0,0
17.07.2019 08:00:00 22,0 15,6 21,5 3 2 13 7 N 1013,3 19 0,0
17.07.2019 07:00:00 19,2 15,3 17,5 9 5 13 7 N 1013,1 15 0,0
17.07.2019 06:00:00 17,9 15,0 16,7 9 5 11 6 N 1012,9 31 0,0
17.07.2019 05:00:00 18,3 15,5 17,8 0 0 9 5 N 1012,9 26 0,0
17.07.2019 04:00:00 19,1 16,5 18,7 6 3 12 7 NNE 1013,1 23 0,0
17.07.2019 03:00:00 20,9 17,5 20,4 9 5 14 7 ENE 1013,6 24 0,0
17.07.2019 02:00:00 21,4 18,4 20,3 10 5 14 7 E 1014,1 18 0,0
17.07.2019 01:00:00 21,3 18,5 20,4 6 3 14 7 E 1014,4 22 0,0
17.07.2019 00:00:00 21,5 18,7 20,9 8 5 11 6 SE 1014,6 18 0,0
16.07.2019 23:00:00 21,8 19,0 21,2 6 4 8 5 ESE 1014,7 24 0,0
16.07.2019 22:00:00 22,2 18,8 21,6 5 3 15 8 SE 1014,4 35 0,0
16.07.2019 21:00:00 23,0 18,3 23,4 13 7 21 11 S 1014,1 36 0,0
16.07.2019 20:00:00 24,9 17,4 26,6 14 8 23 12 S 1013,9 37 0,0
16.07.2019 19:00:00 26,7 16,3 31,8 16 9 27 15 S 1013,8 20 0,0
16.07.2019 18:00:00 26,0 16,0 30,0 20 11 29 16 S 1014,1 43 0,0
16.07.2019 17:00:00 28,2 13,7 35,5 20 11 33 18 SSE 1014,0 20 0,0

tt = Température de l'air
td = dewpoint
tt 5cm = Température de l'air 5cm
ff = Vitesse du vent
fx = gusts
dd = Direction du vent
ppp = reduced air pressure
vv = visibility
rr = Quantités de précipitations

stations d'obs. à proximité